Starlink 3299

operational
NORAD ID: 50831 Int'l Des: 2022-001 Owner: SPXS Country: US Constellation: starlink
LEOCIRCULAR

About Starlink 3299

Description loading...

Live Position

Loading 3D Globe...

Upcoming Passes

Altitude History

Altitude vs Time

uPlot chart will show altitude changes over time

Two-Line Element Set

1 50831U 22001AE 25259.31838615 .00000649 00000-0 58841-4 0 9999
2 50831 53.2134 231.9718 0001500 87.3962 272.7202 15.08840884204081
Epoch: Sep 16, 2025 • Age: 15 hours

Current Status

Altitude 539.6 km
Velocity 7.60 km/s
Sub-Earth Point 13.95°N, 62.4°E
Launch Date Jan 6, 2022
Age 3.6 years
Type internet

Technical Details

Classification Payload
Mass 297.00 kg
Dry Mass 275.00 kg
Total Mass 297.00 kg
Length 0.20 m
Diameter 2.80 m
Span 9.00 m
Shape Box + pan
Manufacturer SPXS
Bus Type Starlink
Phase Status In Orbit
Owner/State SPXS/US

Large Constellations

Loading constellations...